Time,TemperatureF,DewpointF,PressureIn,WindDirection,WindDirectionDegrees,WindSpeedMPH,WindSpeedGustMPH,Humidity,HourlyPrecipIn,Conditions,Clouds,dailyrainin,SoftwareType,DateUTC
2013-01-28 00:10:00,66.4,60.0,30.27,ENE,68,0.0,-999.0,80,-99.99,,,0.00,weatherlink.com 1.10,2013-01-28 05:10:00,
2013-01-28 00:25:00,66.0,60.0,30.27,ENE,72,0.0,-999.0,80,-99.99,,,0.00,weatherlink.com 1.10,2013-01-28 05:25:00,
2013-01-28 00:40:00,65.6,60.0,30.27,East,86,0.0,-999.0,82,-99.99,,,0.00,weatherlink.com 1.10,2013-01-28 05:40:00,
2013-01-28 00:55:00,65.4,60.0,30.27,East,79,2.0,-999.0,82,-99.99,,,0.00,weatherlink.com 1.10,2013-01-28 05:55:00,
2013-01-28 01:10:00,65.1,60.0,30.27,ENE,76,0.0,-999.0,83,-99.99,,,0.00,weatherlink.com 1.10,2013-01-28 06:10:00,
2013-01-28 01:25:00,64.8,60.0,30.27,East,82,3.0,-999.0,84,-99.99,,,0.00,weatherlink.com 1.10,2013-01-28 06:25:00,
2013-01-28 01:40:00,64.6,60.0,30.27,East,86,0.0,-999.0,84,-99.99,,,0.00,weatherlink.com 1.10,2013-01-28 06:40:00,
2013-01-28 01:55:00,64.4,60.0,30.27,ENE,75,3.0,-999.0,85,-99.99,,,0.00,weatherlink.com 1.10,2013-01-28 06:55:00,
2013-01-28 02:10:00,64.1,60.0,30.27,ENE,76,2.0,-999.0,86,-99.99,,,0.00,weatherlink.com 1.10,2013-01-28 07:10:00,
2013-01-28 02:25:00,63.9,60.0,30.26,ENE,68,2.0,-999.0,86,-99.99,,,0.00,weatherlink.com 1.10,2013-01-28 07:25:00,
2013-01-28 02:40:00,63.6,60.0,30.26,ENE,69,0.0,-999.0,87,-99.99,,,0.00,weatherlink.com 1.10,2013-01-28 07:40:00,
2013-01-28 02:55:00,63.5,60.0,30.26,ENE,78,0.0,-999.0,87,-99.99,,,0.00,weatherlink.com 1.10,2013-01-28 07:55:00,
2013-01-28 03:10:00,63.4,60.0,30.26,ENE,71,2.0,-999.0,88,-99.99,,,0.00,weatherlink.com 1.10,2013-01-28 08:10:00,
2013-01-28 03:25:00,63.5,60.0,30.26,East,91,2.0,-999.0,89,-99.99,,,0.00,weatherlink.com 1.10,2013-01-28 08:25:00,
2013-01-28 03:40:00,63.6,60.0,30.26,ENE,76,1.0,-999.0,89,-99.99,,,0.00,weatherlink.com 1.10,2013-01-28 08:40:00,
2013-01-28 03:56:00,63.7,61.0,30.26,ENE,78,2.0,-999.0,89,-99.99,,,0.00,weatherlink.com 1.10,2013-01-28 08:56:00,
2013-01-28 04:10:00,63.7,61.0,30.26,East,91,0.0,-999.0,89,-99.99,,,0.00,weatherlink.com 1.10,2013-01-28 09:10:00,
2013-01-28 04:26:00,63.7,61.0,30.26,East,80,2.0,-999.0,90,-99.99,,,0.00,weatherlink.com 1.10,2013-01-28 09:26:00,
2013-01-28 04:41:00,64.0,61.0,30.25,East,92,4.0,-999.0,91,-99.99,,,0.00,weatherlink.com 1.10,2013-01-28 09:41:00,
2013-01-28 04:56:00,64.0,62.0,30.26,East,81,2.0,-999.0,92,-99.99,,,0.00,weatherlink.com 1.10,2013-01-28 09:56:00,
2013-01-28 05:11:00,63.7,61.0,30.26,ENE,78,3.0,-999.0,92,-99.99,,,0.00,weatherlink.com 1.10,2013-01-28 10:11:00,
2013-01-28 05:26:00,63.5,61.0,30.26,East,90,1.0,-999.0,92,-99.99,,,0.00,weatherlink.com 1.10,2013-01-28 10:26:00,
2013-01-28 05:41:00,63.5,61.0,30.26,ESE,104,4.0,-999.0,92,-99.99,,,0.00,weatherlink.com 1.10,2013-01-28 10:41:00,
2013-01-28 05:56:00,63.6,61.0,30.27,ENE,75,4.0,-999.0,92,-99.99,,,0.00,weatherlink.com 1.10,2013-01-28 10:56:00,
2013-01-28 06:11:00,63.6,61.0,30.27,ENE,69,4.0,-999.0,92,-99.99,,,0.00,weatherlink.com 1.10,2013-01-28 11:11:00,
2013-01-28 06:26:00,63.5,61.0,30.28,East,83,4.0,-999.0,92,-99.99,,,0.00,weatherlink.com 1.10,2013-01-28 11:26:00,
2013-01-28 06:41:00,63.3,61.0,30.28,East,93,0.0,-999.0,92,-99.99,,,0.00,weatherlink.com 1.10,2013-01-28 11:41:00,
2013-01-28 06:56:00,63.1,61.0,30.29,East,90,0.0,-999.0,92,-99.99,,,0.00,weatherlink.com 1.10,2013-01-28 11:56:00,
2013-01-28 07:11:00,62.9,61.0,30.29,ENE,65,0.0,-999.0,93,-99.99,,,0.00,weatherlink.com 1.10,2013-01-28 12:11:00,
2013-01-28 07:26:00,62.7,61.0,30.30,ENE,75,0.0,-999.0,93,-99.99,,,0.00,weatherlink.com 1.10,2013-01-28 12:26:00,
2013-01-28 07:41:00,62.8,61.0,30.30,ENE,77,1.0,-999.0,93,-99.99,,,0.00,weatherlink.com 1.10,2013-01-28 12:41:00,
2013-01-28 07:56:00,63.1,61.0,30.30,East,88,0.0,-999.0,94,-99.99,,,0.00,weatherlink.com 1.10,2013-01-28 12:56:00,
2013-01-28 08:11:00,63.8,62.0,30.30,East,85,0.0,-999.0,94,-99.99,,,0.00,weatherlink.com 1.10,2013-01-28 13:11:00,
2013-01-28 08:26:00,64.7,63.0,30.31,East,92,4.0,-999.0,93,-99.99,,,0.00,weatherlink.com 1.10,2013-01-28 13:26:00,
2013-01-28 08:41:00,66.0,63.0,30.31,ENE,70,3.0,-999.0,91,-99.99,,,0.00,weatherlink.com 1.10,2013-01-28 13:41:00,
2013-01-28 08:56:00,67.6,64.0,30.31,ENE,72,3.0,-999.0,89,-99.99,,,0.00,weatherlink.com 1.10,2013-01-28 13:56:00,
2013-01-28 09:11:00,69.5,66.0,30.32,East,101,6.0,-999.0,87,-99.99,,,0.00,weatherlink.com 1.10,2013-01-28 14:11:00,
2013-01-28 09:26:00,71.8,66.0,30.31,East,86,7.0,-999.0,83,-99.99,,,0.00,weatherlink.com 1.10,2013-01-28 14:26:00,
2013-01-28 09:41:00,73.7,67.0,30.32,East,83,5.0,-999.0,80,-99.99,,,0.00,weatherlink.com 1.10,2013-01-28 14:41:00,
2013-01-28 09:56:00,75.1,67.0,30.32,East,82,7.0,-999.0,76,-99.99,,,0.00,weatherlink.com 1.10,2013-01-28 14:56:00,
2013-01-28 10:11:00,76.2,67.0,30.33,East,86,7.0,-999.0,72,-99.99,,,0.00,weatherlink.com 1.10,2013-01-28 15:11:00,
2013-01-28 10:26:00,77.0,68.0,30.32,ESE,109,13.0,-999.0,73,-99.99,,,0.00,weatherlink.com 1.10,2013-01-28 15:26:00,
2013-01-28 10:41:00,78.2,68.0,30.32,East,101,13.0,-999.0,70,-99.99,,,0.00,weatherlink.com 1.10,2013-01-28 15:41:00,
2013-01-28 10:56:00,79.6,68.0,30.32,SE,137,0.0,-999.0,67,-99.99,,,0.00,weatherlink.com 1.10,2013-01-28 15:56:00,
2013-01-28 11:11:00,80.9,68.0,30.32,East,94,16.0,-999.0,66,-99.99,,,0.00,weatherlink.com 1.10,2013-01-28 16:11:00,
2013-01-28 11:27:00,80.5,67.0,30.31,ESE,118,7.0,-999.0,64,-99.99,,,0.00,weatherlink.com 1.10,2013-01-28 16:27:00,
2013-01-28 11:42:00,80.6,69.0,30.31,NE,46,8.0,-999.0,67,-99.99,,,0.00,weatherlink.com 1.10,2013-01-28 16:42:00,
2013-01-28 11:57:00,80.2,67.0,30.30,ENE,74,10.0,-999.0,65,-99.99,,,0.00,weatherlink.com 1.10,2013-01-28 16:57:00,
2013-01-28 12:12:00,79.8,69.0,30.30,ESE,106,6.0,-999.0,69,-99.99,,,0.00,weatherlink.com 1.10,2013-01-28 17:12:00,
2013-01-28 12:27:00,82.5,68.0,30.29,East,98,9.0,-999.0,61,-99.99,,,0.00,weatherlink.com 1.10,2013-01-28 17:27:00,
2013-01-28 12:42:00,82.7,67.0,30.28,ESE,113,11.0,-999.0,60,-99.99,,,0.00,weatherlink.com 1.10,2013-01-28 17:42:00,
2013-01-28 12:57:00,81.4,66.0,30.27,East,93,8.0,-999.0,60,-99.99,,,0.00,weatherlink.com 1.10,2013-01-28 17:57:00,
2013-01-28 13:12:00,82.3,66.0,30.26,SSE,165,5.0,-999.0,58,-99.99,,,0.00,weatherlink.com 1.10,2013-01-28 18:12:00,
2013-01-28 13:27:00,84.3,66.0,30.25,ESE,120,1.0,-999.0,55,-99.99,,,0.00,weatherlink.com 1.10,2013-01-28 18:27:00,
2013-01-28 13:42:00,83.6,66.0,30.25,SE,130,4.0,-999.0,56,-99.99,,,0.00,weatherlink.com 1.10,2013-01-28 18:42:00,
2013-01-28 13:57:00,82.4,66.0,30.24,East,101,9.0,-999.0,58,-99.99,,,0.00,weatherlink.com 1.10,2013-01-28 18:57:00,
2013-01-28 14:12:00,81.5,67.0,30.24,East,101,5.0,-999.0,62,-99.99,,,0.00,weatherlink.com 1.10,2013-01-28 19:12:00,
2013-01-28 14:27:00,80.6,66.0,30.23,ENE,78,4.0,-999.0,62,-99.99,,,0.00,weatherlink.com 1.10,2013-01-28 19:27:00,
2013-01-28 14:42:00,80.4,66.0,30.22,East,98,4.0,-999.0,62,-99.99,,,0.00,weatherlink.com 1.10,2013-01-28 19:42:00,
2013-01-28 14:57:00,80.3,66.0,30.22,ENE,69,5.0,-999.0,61,-99.99,,,0.00,weatherlink.com 1.10,2013-01-28 19:57:00,
2013-01-28 15:12:00,80.3,66.0,30.22,ENE,61,5.0,-999.0,61,-99.99,,,0.00,weatherlink.com 1.10,2013-01-28 20:12:00,
2013-01-28 15:27:00,80.6,65.0,30.22,SE,125,5.0,-999.0,59,-99.99,,,0.00,weatherlink.com 1.10,2013-01-28 20:27:00,
2013-01-28 15:42:00,80.5,64.0,30.21,East,79,2.0,-999.0,58,-99.99,,,0.00,weatherlink.com 1.10,2013-01-28 20:42:00,
2013-01-28 15:57:00,80.3,64.0,30.21,East,93,2.0,-999.0,58,-99.99,,,0.00,weatherlink.com 1.10,2013-01-28 20:57:00,
2013-01-28 16:12:00,79.7,64.0,30.21,East,82,6.0,-999.0,60,-99.99,,,0.00,weatherlink.com 1.10,2013-01-28 21:12:00,
2013-01-28 16:27:00,79.7,64.0,30.21,ESE,112,7.0,-999.0,60,-99.99,,,0.00,weatherlink.com 1.10,2013-01-28 21:27:00,
2013-01-28 16:42:00,79.4,64.0,30.21,East,94,5.0,-999.0,59,-99.99,,,0.00,weatherlink.com 1.10,2013-01-28 21:42:00,
2013-01-28 16:57:00,79.0,64.0,30.21,ENE,76,5.0,-999.0,60,-99.99,,,0.00,weatherlink.com 1.10,2013-01-28 21:57:00,
2013-01-28 17:12:00,78.5,64.0,30.21,East,81,0.0,-999.0,61,-99.99,,,0.00,weatherlink.com 1.10,2013-01-28 22:12:00,
2013-01-28 17:27:00,78.3,64.0,30.22,ESE,103,5.0,-999.0,61,-99.99,,,0.00,weatherlink.com 1.10,2013-01-28 22:27:00,
2013-01-28 17:42:00,78.1,63.0,30.22,East,97,4.0,-999.0,60,-99.99,,,0.00,weatherlink.com 1.10,2013-01-28 22:42:00,
2013-01-28 17:57:00,77.4,62.0,30.22,ESE,106,2.0,-999.0,59,-99.99,,,0.00,weatherlink.com 1.10,2013-01-28 22:57:00,
2013-01-28 18:12:00,76.6,62.0,30.23,ESE,105,2.0,-999.0,60,-99.99,,,0.00,weatherlink.com 1.10,2013-01-28 23:12:00,
2013-01-28 18:27:00,75.7,61.0,30.23,ESE,105,0.0,-999.0,61,-99.99,,,0.00,weatherlink.com 1.10,2013-01-28 23:27:00,
2013-01-28 18:42:00,75.0,61.0,30.24,ESE,105,4.0,-999.0,62,-99.99,,,0.00,weatherlink.com 1.10,2013-01-28 23:42:00,
2013-01-28 18:57:00,74.1,61.0,30.24,ESE,111,4.0,-999.0,64,-99.99,,,0.00,weatherlink.com 1.10,2013-01-28 23:57:00,
2013-01-28 19:12:00,73.6,61.0,30.24,East,96,6.0,-999.0,65,-99.99,,,0.00,weatherlink.com 1.10,2013-01-29 00:12:00,
2013-01-28 19:27:00,73.3,62.0,30.24,East,98,5.0,-999.0,67,-99.99,,,0.00,weatherlink.com 1.10,2013-01-29 00:27:00,
2013-01-28 19:42:00,72.8,62.0,30.25,East,94,2.0,-999.0,68,-99.99,,,0.00,weatherlink.com 1.10,2013-01-29 00:42:00,
2013-01-28 19:57:00,72.2,62.0,30.25,East,98,0.0,-999.0,70,-99.99,,,0.00,weatherlink.com 1.10,2013-01-29 00:57:00,
2013-01-28 20:12:00,71.8,62.0,30.25,East,98,0.0,-999.0,72,-99.99,,,0.00,weatherlink.com 1.10,2013-01-29 01:12:00,
2013-01-28 20:27:00,71.6,63.0,30.26,East,99,2.0,-999.0,74,-99.99,,,0.00,weatherlink.com 1.10,2013-01-29 01:27:00,
2013-01-28 20:42:00,71.5,63.0,30.26,East,90,2.0,-999.0,75,-99.99,,,0.00,weatherlink.com 1.10,2013-01-29 01:42:00,
2013-01-28 20:57:00,71.3,63.0,30.27,East,96,0.0,-999.0,75,-99.99,,,0.00,weatherlink.com 1.10,2013-01-29 01:57:00,
2013-01-28 21:12:00,71.1,63.0,30.27,ESE,103,1.0,-999.0,76,-99.99,,,0.00,weatherlink.com 1.10,2013-01-29 02:12:00,
2013-01-28 21:27:00,71.0,63.0,30.27,East,100,4.0,-999.0,77,-99.99,,,0.00,weatherlink.com 1.10,2013-01-29 02:27:00,
2013-01-28 21:42:00,70.6,63.0,30.27,East,98,2.0,-999.0,78,-99.99,,,0.00,weatherlink.com 1.10,2013-01-29 02:42:00,
2013-01-28 21:57:00,70.1,63.0,30.27,East,96,2.0,-999.0,78,-99.99,,,0.00,weatherlink.com 1.10,2013-01-29 02:57:00,
2013-01-28 22:12:00,69.5,63.0,30.26,ESE,113,5.0,-999.0,79,-99.99,,,0.00,weatherlink.com 1.10,2013-01-29 03:12:00,
2013-01-28 22:27:00,69.2,63.0,30.27,East,97,2.0,-999.0,80,-99.99,,,0.00,weatherlink.com 1.10,2013-01-29 03:27:00,
2013-01-28 22:42:00,69.0,63.0,30.26,East,94,4.0,-999.0,81,-99.99,,,0.00,weatherlink.com 1.10,2013-01-29 03:42:00,
2013-01-28 22:57:00,68.7,63.0,30.26,East,96,0.0,-999.0,81,-99.99,,,0.00,weatherlink.com 1.10,2013-01-29 03:57:00,
2013-01-28 23:12:00,68.3,63.0,30.26,East,96,0.0,-999.0,82,-99.99,,,0.00,weatherlink.com 1.10,2013-01-29 04:12:00,
2013-01-28 23:27:00,67.7,62.0,30.26,East,96,0.0,-999.0,83,-99.99,,,0.00,weatherlink.com 1.10,2013-01-29 04:27:00,
2013-01-28 23:42:00,67.2,62.0,30.26,East,96,0.0,-999.0,84,-99.99,,,0.00,weatherlink.com 1.10,2013-01-29 04:42:00,
2013-01-28 23:57:00,66.7,62.0,30.25,East,96,0.0,-999.0,85,-99.99,,,0.00,weatherlink.com 1.10,2013-01-29 04:57:00,